KLM15L EHAM-ENZV

Flight info

Callsign KLM15L
Flight time 1h 5m
Altitude 33000
Route ANDIK N873 JUIST DCT OMIMA DCT MITSI DCT RIVEX
Aircraft A21N/M-SDE3FGHIRWY/LB1

Departure

Time 2026-05-06 15:51
Airport Amsterdam Airport Schiphol (EHAM)

Arrival

Time 2026-05-06 16:56
Airport Stavanger Airport, Sola (ENZV)
Time Latitude Longitude Altitude Speed Heading
2026-05-06 15:25 52.30507 4.76550 5 ft 0 kts 59°
2026-05-06 15:32 52.30432 4.76594 2 ft 0 kts 59°
2026-05-06 15:43 52.30430 4.76588 2 ft 2 kts 59°
2026-05-06 15:43 52.30422 4.76567 2 ft 2 kts 59°
2026-05-06 15:44 52.30415 4.76547 2 ft 1 kts 86°
2026-05-06 15:44 52.30419 4.76524 2 ft 1 kts 138°
2026-05-06 15:44 52.30424 4.76519 2 ft 1 kts 155°
2026-05-06 15:44 52.30428 4.76516 3 ft 0 kts 149°
2026-05-06 15:46 52.30427 4.76516 3 ft 0 kts 149°
2026-05-06 15:46 52.30403 4.76539 2 ft 7 kts 149°
2026-05-06 15:46 52.30339 4.76576 0 ft 12 kts 189°
2026-05-06 15:46 52.30270 4.76455 0 ft 16 kts 237°
2026-05-06 15:47 52.30206 4.76288 0 ft 19 kts 238°
2026-05-06 15:47 52.30130 4.76090 0 ft 20 kts 239°
2026-05-06 15:47 52.30059 4.75903 0 ft 19 kts 239°
2026-05-06 15:47 52.29988 4.75720 0 ft 19 kts 236°
2026-05-06 15:48 52.29918 4.75534 0 ft 18 kts 240°
2026-05-06 15:48 52.29846 4.75344 0 ft 21 kts 243°
2026-05-06 15:48 52.29877 4.75127 2 ft 21 kts 310°
2026-05-06 15:48 52.29981 4.74935 2 ft 23 kts 314°
2026-05-06 15:49 52.30097 4.74719 -1 ft 26 kts 314°
2026-05-06 15:49 52.30228 4.74474 -7 ft 30 kts 311°
2026-05-06 15:49 52.30349 4.74258 -11 ft 20 kts 312°
2026-05-06 15:49 52.30338 4.74055 -11 ft 19 kts 226°
2026-05-06 15:50 52.30230 4.73926 -12 ft 19 kts 215°
2026-05-06 15:50 52.30194 4.73769 -9 ft 12 kts 295°
2026-05-06 15:50 52.30278 4.73742 -8 ft 18 kts
2026-05-06 15:50 52.30661 4.73778 -9 ft 95 kts
2026-05-06 15:51 52.31570 4.73858 0 ft 161 kts
2026-05-06 15:51 52.32802 4.73994 335 ft 188 kts
2026-05-06 15:51 52.34130 4.74237 984 ft 200 kts 14°
2026-05-06 15:51 52.35508 4.74985 1515 ft 221 kts 26°
2026-05-06 15:52 52.36924 4.76146 2118 ft 238 kts 31°
2026-05-06 15:52 52.38307 4.77747 2863 ft 249 kts 41°
2026-05-06 15:52 52.39560 4.79714 3747 ft 254 kts 46°
2026-05-06 15:52 52.40788 4.81774 4644 ft 257 kts 46°
2026-05-06 15:53 52.42023 4.83862 5498 ft 261 kts 45°
2026-05-06 15:53 52.43439 4.85667 6322 ft 264 kts 24°
2026-05-06 15:53 52.45237 4.86265 7144 ft 269 kts
2026-05-06 15:53 52.47089 4.86109 7971 ft 270 kts 357°
2026-05-06 15:54 52.48954 4.85890 8747 ft 274 kts 357°
2026-05-06 15:54 52.50852 4.85676 9486 ft 278 kts 357°
2026-05-06 15:54 52.52779 4.85683 10169 ft 281 kts 11°
2026-05-06 15:54 52.54608 4.86913 10600 ft 295 kts 35°
2026-05-06 15:55 52.56073 4.89373 10935 ft 313 kts 51°
2026-05-06 15:55 52.57427 4.92271 11263 ft 330 kts 51°
2026-05-06 15:55 52.58872 4.95345 11635 ft 345 kts 51°
2026-05-06 15:55 52.60356 4.98463 12236 ft 351 kts 50°
2026-05-06 15:56 52.61860 5.01608 12895 ft 355 kts 50°
2026-05-06 15:56 52.63394 5.04817 13527 ft 359 kts 50°
2026-05-06 15:56 52.64939 5.08050 14136 ft 363 kts 50°
2026-05-06 15:56 52.66493 5.11310 14724 ft 368 kts 50°
2026-05-06 15:57 52.68066 5.14618 15319 ft 372 kts 50°
2026-05-06 15:57 52.69684 5.18023 15919 ft 376 kts 50°
2026-05-06 15:57 52.71282 5.21391 16495 ft 380 kts 50°
2026-05-06 15:57 52.72924 5.24853 17068 ft 384 kts 50°
2026-05-06 15:58 52.74558 5.28297 17617 ft 388 kts 50°
2026-05-06 15:58 52.76213 5.31789 18156 ft 392 kts 50°
2026-05-06 15:58 52.77914 5.35379 18695 ft 396 kts 50°
2026-05-06 15:58 52.79603 5.38947 19217 ft 399 kts 50°
2026-05-06 15:59 52.81318 5.42577 19746 ft 402 kts 50°
2026-05-06 15:59 52.83044 5.46239 20249 ft 406 kts 51°
2026-05-06 15:59 52.84762 5.49893 20727 ft 409 kts 51°
2026-05-06 15:59 52.86504 5.53603 21198 ft 413 kts 51°
2026-05-06 16:00 52.88280 5.57393 21661 ft 416 kts 51°
2026-05-06 16:00 52.90040 5.61155 22111 ft 419 kts 51°
2026-05-06 16:00 52.91821 5.64969 22554 ft 423 kts 51°
2026-05-06 16:00 52.93633 5.68855 22987 ft 426 kts 52°
2026-05-06 16:01 52.95428 5.72711 23398 ft 429 kts 52°
2026-05-06 16:01 52.97267 5.76668 23810 ft 431 kts 52°
2026-05-06 16:01 52.99075 5.80565 24207 ft 434 kts 52°
2026-05-06 16:01 53.00919 5.84543 24606 ft 437 kts 52°
2026-05-06 16:02 53.02767 5.88543 24997 ft 439 kts 52°
2026-05-06 16:02 53.04620 5.92560 25376 ft 442 kts 52°
2026-05-06 16:02 53.06490 5.96620 25746 ft 445 kts 52°
2026-05-06 16:02 53.08391 6.00754 26115 ft 448 kts 52°
2026-05-06 16:03 53.10285 6.04875 26481 ft 450 kts 52°
2026-05-06 16:03 53.12183 6.09005 26844 ft 453 kts 53°
2026-05-06 16:03 53.14084 6.13145 27202 ft 455 kts 53°
2026-05-06 16:03 53.16003 6.17335 27547 ft 458 kts 53°
2026-05-06 16:04 53.17944 6.21583 27883 ft 460 kts 53°
2026-05-06 16:04 53.19871 6.25810 28217 ft 462 kts 53°
2026-05-06 16:04 53.21805 6.30061 28544 ft 464 kts 53°
2026-05-06 16:04 53.23734 6.34311 28860 ft 465 kts 53°
2026-05-06 16:05 53.25702 6.38653 29207 ft 466 kts 53°
2026-05-06 16:05 53.27628 6.42912 29592 ft 465 kts 53°
2026-05-06 16:05 53.29562 6.47199 29975 ft 464 kts 53°
2026-05-06 16:05 53.31486 6.51464 30369 ft 463 kts 53°
2026-05-06 16:06 53.33470 6.55689 30771 ft 462 kts 51°
2026-05-06 16:06 53.35612 6.59757 31171 ft 462 kts 47°
2026-05-06 16:06 53.37859 6.63552 31542 ft 463 kts 44°
2026-05-06 16:06 53.40183 6.67183 31847 ft 463 kts 43°
2026-05-06 16:07 53.42585 6.70855 32092 ft 465 kts 43°
2026-05-06 16:07 53.44958 6.74477 32336 ft 466 kts 43°
2026-05-06 16:07 53.47355 6.78155 32583 ft 467 kts 43°
2026-05-06 16:07 53.49718 6.81791 32811 ft 467 kts 42°
2026-05-06 16:08 53.52289 6.85119 32928 ft 469 kts 33°
2026-05-06 16:08 53.55146 6.87711 32958 ft 469 kts 23°
2026-05-06 16:08 53.61391 6.90365 32969 ft 466 kts
2026-05-06 16:09 53.67833 6.89793 32939 ft 463 kts 351°
2026-05-06 16:09 53.74174 6.88393 32926 ft 463 kts 351°
2026-05-06 16:10 53.80533 6.87010 32916 ft 463 kts 351°
2026-05-06 16:10 53.86923 6.85660 32914 ft 464 kts 351°
2026-05-06 16:11 53.93317 6.84321 32919 ft 464 kts 351°
2026-05-06 16:11 53.99697 6.82988 32922 ft 464 kts 351°
2026-05-06 16:12 54.06055 6.81657 32924 ft 464 kts 351°
2026-05-06 16:12 54.12454 6.80313 32925 ft 464 kts 351°
2026-05-06 16:13 54.18864 6.78965 32929 ft 465 kts 351°
2026-05-06 16:13 54.25269 6.77614 32929 ft 467 kts 351°
2026-05-06 16:14 54.31697 6.76249 32926 ft 467 kts 351°
2026-05-06 16:14 54.38132 6.74878 32926 ft 467 kts 351°
2026-05-06 16:15 54.44545 6.73509 32928 ft 467 kts 350°
2026-05-06 16:15 54.50977 6.72132 32929 ft 467 kts 350°
2026-05-06 16:16 54.57413 6.70752 32930 ft 467 kts 350°
2026-05-06 16:16 54.63839 6.69373 32931 ft 467 kts 350°
2026-05-06 16:17 54.70238 6.67994 32932 ft 467 kts 350°
2026-05-06 16:17 54.76697 6.66596 32933 ft 467 kts 350°
2026-05-06 16:18 54.83096 6.65206 32934 ft 468 kts 350°
2026-05-06 16:18 54.89540 6.63802 32935 ft 469 kts 350°
2026-05-06 16:19 54.95987 6.62393 32935 ft 469 kts 350°
2026-05-06 16:19 55.02485 6.61289 32936 ft 470 kts 354°
2026-05-06 16:20 55.08980 6.60770 32937 ft 471 kts 355°
2026-05-06 16:20 55.15514 6.60299 32938 ft 472 kts 355°
2026-05-06 16:21 55.22051 6.59812 32941 ft 472 kts 354°
2026-05-06 16:21 55.28614 6.59312 32944 ft 472 kts 354°
2026-05-06 16:22 55.35139 6.58812 32946 ft 472 kts 354°
2026-05-06 16:22 55.41679 6.58308 32946 ft 472 kts 354°
2026-05-06 16:23 55.48207 6.57800 32947 ft 473 kts 354°
2026-05-06 16:23 55.54790 6.57288 32947 ft 473 kts 354°
2026-05-06 16:24 55.61329 6.56779 32948 ft 473 kts 354°
2026-05-06 16:24 55.67862 6.56268 32949 ft 474 kts 354°
2026-05-06 16:25 55.74430 6.55748 32951 ft 474 kts 354°
2026-05-06 16:25 55.81025 6.55226 32952 ft 474 kts 354°
2026-05-06 16:26 55.87594 6.54706 32953 ft 475 kts 354°
2026-05-06 16:26 55.94175 6.54183 32954 ft 475 kts 353°
2026-05-06 16:27 56.00745 6.53661 32954 ft 475 kts 353°
2026-05-06 16:27 56.07305 6.53137 32954 ft 475 kts 353°
2026-05-06 16:28 56.13917 6.52609 32953 ft 475 kts 353°
2026-05-06 16:28 56.20469 6.52083 32954 ft 475 kts 353°
2026-05-06 16:29 56.27038 6.51551 32954 ft 475 kts 353°
2026-05-06 16:29 56.33631 6.51022 32962 ft 475 kts 353°
2026-05-06 16:30 56.38054 6.50660 32965 ft 475 kts 353°
2026-05-06 16:30 56.46839 6.49942 32968 ft 475 kts 353°
2026-05-06 16:31 56.53422 6.49402 32970 ft 476 kts 353°
2026-05-06 16:31 56.60020 6.48860 32971 ft 476 kts 353°
2026-05-06 16:32 56.66577 6.48321 32972 ft 476 kts 353°
2026-05-06 16:32 56.73160 6.47779 32974 ft 475 kts 353°
2026-05-06 16:33 56.79747 6.47234 32976 ft 475 kts 353°
2026-05-06 16:34 56.89624 6.46416 32978 ft 476 kts 352°
2026-05-06 16:34 56.96205 6.45868 32980 ft 475 kts 352°
2026-05-06 16:35 57.02803 6.45635 32969 ft 478 kts 356°
2026-05-06 16:35 57.06131 6.45770 32760 ft 477 kts 356°
2026-05-06 16:35 57.09403 6.45943 32551 ft 475 kts 357°
2026-05-06 16:35 57.12687 6.46123 32323 ft 473 kts 357°
2026-05-06 16:36 57.15964 6.46299 32071 ft 470 kts 356°
2026-05-06 16:36 57.19225 6.46469 31820 ft 468 kts 356°
2026-05-06 16:36 57.22459 6.46633 31570 ft 468 kts 356°
2026-05-06 16:36 57.25675 6.46793 31314 ft 468 kts 356°
2026-05-06 16:37 57.28950 6.46955 31042 ft 468 kts 356°
2026-05-06 16:37 57.32169 6.47113 30714 ft 470 kts 356°
2026-05-06 16:37 57.35420 6.47274 30270 ft 471 kts 356°
2026-05-06 16:37 57.38696 6.47377 29652 ft 470 kts 353°
2026-05-06 16:38 57.41871 6.46380 28667 ft 466 kts 337°
2026-05-06 16:38 57.44930 6.44512 27741 ft 469 kts 335°
2026-05-06 16:38 57.47989 6.42537 27166 ft 463 kts 335°
2026-05-06 16:38 57.50998 6.40612 26626 ft 456 kts 335°
2026-05-06 16:39 57.53953 6.38755 26017 ft 449 kts 335°
2026-05-06 16:39 57.56883 6.36938 25391 ft 443 kts 336°
2026-05-06 16:39 57.59770 6.35164 24760 ft 438 kts 336°
2026-05-06 16:39 57.62661 6.33396 24172 ft 432 kts 336°
2026-05-06 16:40 57.65480 6.31679 23648 ft 427 kts 336°
2026-05-06 16:40 57.68244 6.29996 23110 ft 422 kts 336°
2026-05-06 16:40 57.71032 6.28297 22564 ft 418 kts 336°
2026-05-06 16:40 57.73745 6.26642 22036 ft 413 kts 336°
2026-05-06 16:41 57.76483 6.24970 21501 ft 409 kts 336°
2026-05-06 16:41 57.79153 6.23336 20963 ft 405 kts 336°
2026-05-06 16:41 57.81795 6.21718 20424 ft 401 kts 336°
2026-05-06 16:41 57.84442 6.20094 19879 ft 397 kts 336°
2026-05-06 16:42 57.87017 6.18512 19346 ft 393 kts 336°
2026-05-06 16:42 57.89585 6.16932 18812 ft 389 kts 336°
2026-05-06 16:42 57.92164 6.15344 18274 ft 386 kts 337°
2026-05-06 16:42 57.94691 6.13785 17741 ft 382 kts 337°
2026-05-06 16:43 57.97179 6.12247 17204 ft 378 kts 337°
2026-05-06 16:43 57.99660 6.10712 16660 ft 375 kts 337°
2026-05-06 16:43 58.02100 6.09199 16121 ft 372 kts 337°
2026-05-06 16:43 58.04537 6.07687 15579 ft 369 kts 337°
2026-05-06 16:44 58.06951 6.06188 15018 ft 365 kts 338°
2026-05-06 16:44 58.09352 6.04694 14435 ft 362 kts 338°
2026-05-06 16:44 58.11712 6.03227 13867 ft 360 kts 338°
2026-05-06 16:44 58.14079 6.01751 13303 ft 357 kts 338°
2026-05-06 16:45 58.16420 6.00290 12734 ft 355 kts 338°
2026-05-06 16:45 58.18729 5.98853 12169 ft 352 kts 338°
2026-05-06 16:45 58.21044 5.97408 11683 ft 348 kts 338°
2026-05-06 16:45 58.23320 5.95980 11269 ft 341 kts 338°
2026-05-06 16:46 58.25544 5.94578 10848 ft 335 kts 338°
2026-05-06 16:46 58.27697 5.93216 10441 ft 326 kts 339°
2026-05-06 16:46 58.29812 5.91882 9959 ft 310 kts 339°
2026-05-06 16:46 58.31784 5.90637 9512 ft 296 kts 339°
2026-05-06 16:47 58.33689 5.89432 9122 ft 281 kts 340°
2026-05-06 16:47 58.35495 5.88287 8774 ft 273 kts 340°
2026-05-06 16:47 58.37288 5.87148 8432 ft 273 kts 341°
2026-05-06 16:47 58.39077 5.86011 8094 ft 272 kts 341°
2026-05-06 16:48 58.40882 5.84868 7759 ft 271 kts 341°
2026-05-06 16:48 58.42658 5.83744 7430 ft 269 kts 341°
2026-05-06 16:48 58.44418 5.82627 7104 ft 267 kts 342°
2026-05-06 16:48 58.46155 5.81524 6783 ft 265 kts 342°
2026-05-06 16:49 58.47904 5.80416 6460 ft 263 kts 342°
2026-05-06 16:49 58.49618 5.79331 6145 ft 260 kts 341°
2026-05-06 16:49 58.51327 5.78243 5827 ft 258 kts 341°
2026-05-06 16:49 58.53013 5.77166 5513 ft 256 kts 341°
2026-05-06 16:50 58.54698 5.76089 5199 ft 255 kts 341°
2026-05-06 16:50 58.56371 5.75018 4885 ft 253 kts 341°
2026-05-06 16:50 58.58026 5.73956 4575 ft 251 kts 341°
2026-05-06 16:50 58.59112 5.73261 4369 ft 249 kts 341°
2026-05-06 16:51 58.61291 5.71861 3957 ft 246 kts 341°
2026-05-06 16:51 58.62893 5.70832 3693 ft 241 kts 341°
2026-05-06 16:51 58.64460 5.69828 3418 ft 235 kts 341°
2026-05-06 16:51 58.65982 5.68858 3257 ft 226 kts 341°
2026-05-06 16:52 58.67415 5.67943 3214 ft 214 kts 340°
2026-05-06 16:52 58.68829 5.67027 3167 ft 214 kts 340°
2026-05-06 16:52 58.70246 5.66108 3040 ft 214 kts 340°
2026-05-06 16:52 58.71643 5.65190 2891 ft 213 kts 341°
2026-05-06 16:53 58.73089 5.64499 2736 ft 214 kts 349°
2026-05-06 16:53 58.74559 5.64203 2548 ft 215 kts 355°
2026-05-06 16:53 58.76046 5.64108 2249 ft 210 kts 357°
2026-05-06 16:53 58.77458 5.64084 1955 ft 198 kts 357°
2026-05-06 16:54 58.78760 5.64059 1776 ft 180 kts 357°
2026-05-06 16:54 58.79972 5.64025 1501 ft 169 kts 356°
2026-05-06 16:54 58.81100 5.63991 1264 ft 155 kts 356°
2026-05-06 16:54 58.82120 5.63958 1039 ft 141 kts 356°
2026-05-06 16:55 58.83065 5.63929 837 ft 133 kts 356°
2026-05-06 16:55 58.83983 5.63900 684 ft 133 kts 356°
2026-05-06 16:55 58.84922 5.63863 505 ft 136 kts 356°
2026-05-06 16:55 58.85844 5.63838 324 ft 132 kts 357°
2026-05-06 16:56 58.86745 5.63816 136 ft 127 kts 357°
2026-05-06 16:56 58.87595 5.63786 28 ft 109 kts 358°
2026-05-06 16:56 58.88195 5.63761 30 ft 70 kts 360°
2026-05-06 16:56 58.88567 5.63755 29 ft 31 kts 359°
2026-05-06 16:57 58.88705 5.63688 27 ft 14 kts 292°
2026-05-06 16:57 58.88713 5.63526 28 ft 11 kts 256°
2026-05-06 16:57 58.88670 5.63429 30 ft 9 kts 197°
2026-05-06 16:57 58.88603 5.63420 32 ft 11 kts 182°
2026-05-06 16:58 58.88498 5.63423 32 ft 18 kts 178°
2026-05-06 16:58 58.88362 5.63427 32 ft 19 kts 180°
2026-05-06 16:58 58.88277 5.63355 31 ft 13 kts 240°
2026-05-06 16:58 58.88193 5.63301 29 ft 14 kts 187°
2026-05-06 16:59 58.88100 5.63229 29 ft 15 kts 219°
2026-05-06 16:59 58.88038 5.63082 25 ft 10 kts 280°
2026-05-06 16:59 58.88075 5.62994 25 ft 6 kts 314°
2026-05-06 16:59 58.88086 5.62971 25 ft 0 kts 314°
2026-05-06 17:00 58.88087 5.62970 25 ft 0 kts 314°